| time (UTC) | temp C | wind direction | speed KPH | gust KPH | rain 1hr cm | rain 24hr cm | rain mn cm | humidity % | barometer mb |
| 20260904224104 | 30 | 325 | 4.8 | 8.0 | 0.00 | 0.00 | 0.00 | 66 | 1013.3 |
| 20260904223603 | 30 | 172 | 0.0 | 3.2 | 0.00 | 0.00 | 0.00 | 66 | 1012.8 |
| 20260904223058 | 30 | 68 | 3.2 | 3.2 | 0.00 | 0.00 | 0.00 | 65 | 1013.1 |
| 20260904222554 | 30 | 283 | 0.0 | 0.0 | 0.00 | 0.00 | 0.00 | 64 | 1012.9 |
| 20260904222049 | 30 | 211 | 1.6 | 3.2 | 0.00 | 0.00 | 0.00 | 64 | 1012.8 |
| 20260904221544 | 30 | 342 | 6.4 | 8.0 | 0.00 | 0.00 | 0.00 | 63 | 1012.9 |
| 20260904221039 | 31 | 236 | 3.2 | 4.8 | 0.00 | 0.00 | 0.00 | 62 | 1013.1 |
| 20260904220538 | 30 | 149 | 0.0 | 0.0 | 0.00 | 0.00 | 0.00 | 63 | 1012.7 |
| 20260904220034 | 31 | 186 | 3.2 | 4.8 | 0.00 | 0.00 | 0.00 | 62 | 1012.6 |
| 20260904215533 | 31 | 252 | 6.4 | 8.0 | 0.00 | 0.00 | 0.00 | 63 | 1012.6 |
| 20260904215030 | 31 | 142 | 6.4 | 8.0 | 0.00 | 0.00 | 0.00 | 63 | 1012.7 |
| 20260904214525 | 31 | 343 | 3.2 | 4.8 | 0.00 | 0.00 | 0.00 | 63 | 1012.5 |
| 20260904214020 | 31 | 327 | 3.2 | 4.8 | 0.00 | 0.00 | 0.00 | 62 | 1012.5 |
| 20260904213518 | 31 | 351 | 4.8 | 8.0 | 0.00 | 0.00 | 0.00 | 63 | 1012.5 |
| 20260904213015 | 31 | 193 | 4.8 | 4.8 | 0.00 | 0.00 | 0.00 | 63 | 1012.7 |
| 20260904212514 | 30 | 80 | 4.8 | 4.8 | 0.00 | 0.00 | 0.00 | 64 | 1012.6 |
| 20260904212009 | 31 | 136 | 0.0 | 3.2 | 0.00 | 0.00 | 0.00 | 64 | 1012.7 |
| 20260904211503 | 31 | 281 | 3.2 | 4.8 | 0.00 | 0.00 | 0.00 | 64 | 1012.6 |
| 20260904210959 | 30 | 338 | 4.8 | 4.8 | 0.00 | 0.00 | 0.00 | 64 | 1012.8 |
| 20260904210458 | 30 | 299 | 4.8 | 8.0 | 0.00 | 0.00 | 0.00 | 65 | 1012.8 |
| 20260904205954 | 30 | 245 | 3.2 | 3.2 | 0.00 | 0.00 | 0.00 | 65 | 1012.6 |
| 20260904205449 | 30 | 19 | 3.2 | 4.8 | 0.00 | 0.00 | 0.00 | 66 | 1012.8 |
| 20260904204947 | 30 | 176 | 1.6 | 3.2 | 0.00 | 0.00 | 0.00 | 65 | 1012.7 |
| 20260904204442 | 31 | 111 | 4.8 | 4.8 | 0.00 | 0.00 | 0.00 | 64 | 1012.7 |
| 20260904203938 | 31 | 357 | 8.0 | 11.3 | 0.00 | 0.00 | 0.00 | 64 | 1012.6 |
| 20260904203434 | 31 | 120 | 3.2 | 4.8 | 0.00 | 0.00 | 0.00 | 63 | 1012.7 |
| 20260904202930 | 30 | 121 | 1.6 | 3.2 | 0.00 | 0.00 | 0.00 | 66 | 1012.6 |
| 20260904202426 | 30 | 319 | 9.7 | 11.3 | 0.00 | 0.00 | 0.00 | 64 | 1012.6 |
| 20260904201922 | 30 | 141 | 3.2 | 4.8 | 0.00 | 0.00 | 0.00 | 65 | 1012.7 |
| 20260904201416 | 30 | 21 | 3.2 | 4.8 | 0.00 | 0.00 | 0.00 | 65 | 1012.7 |
| 20260904200912 | 30 | 85 | 3.2 | 4.8 | 0.00 | 0.00 | 0.00 | 66 | 1012.6 |
| 20260904200410 | 30 | 24 | 6.4 | 11.3 | 0.00 | 0.00 | 0.00 | 65 | 1012.9 |
| 20260904195906 | 30 | 148 | 3.2 | 3.2 | 0.00 | 0.00 | 0.00 | 67 | 1012.8 |
| 20260904195403 | 30 | 2 | 3.2 | 4.8 | 0.00 | 0.00 | 0.00 | 67 | 1012.9 |
| 20260904194858 | 30 | 164 | 3.2 | 3.2 | 0.00 | 0.00 | 0.00 | 67 | 1012.9 |
| 20260904194358 | 30 | 18 | 6.4 | 11.3 | 0.00 | 0.00 | 0.00 | 67 | 1012.9 |
| 20260904193853 | 29 | 350 | 6.4 | 8.0 | 0.00 | 0.00 | 0.00 | 70 | 1012.7 |
| 20260904193348 | 29 | 354 | 3.2 | 8.0 | 0.00 | 0.00 | 0.00 | 69 | 1012.8 |
| 20260904192843 | 29 | 188 | 1.6 | 3.2 | 0.00 | 0.00 | 0.00 | 69 | 1012.8 |
| 20260904192339 | 28 | 176 | 3.2 | 4.8 | 0.00 | 0.00 | 0.00 | 72 | 1012.8 |
| 20260904191835 | 28 | 350 | 4.8 | 4.8 | 0.00 | 0.00 | 0.00 | 74 | 1012.9 |
| 20260904191332 | 28 | 344 | 4.8 | 8.0 | 0.00 | 0.00 | 0.00 | 72 | 1013.1 |
| 20260904190828 | 28 | 334 | 6.4 | 11.3 | 0.00 | 0.00 | 0.00 | 72 | 1013.1 |
| 20260904190324 | 29 | 184 | 6.4 | 8.0 | 0.00 | 0.00 | 0.00 | 71 | 1013.3 |
| 20260904185820 | 28 | 23 | 4.8 | 4.8 | 0.00 | 0.00 | 0.00 | 72 | 1013.2 |
| 20260904185315 | 28 | 263 | 8.0 | 11.3 | 0.00 | 0.00 | 0.00 | 72 | 1013.1 |
| 20260904184814 | 28 | 315 | 4.8 | 4.8 | 0.00 | 0.00 | 0.00 | 73 | 1013.1 |
| 20260904184309 | 27 | 296 | 3.2 | 4.8 | 0.00 | 0.00 | 0.00 | 75 | 1012.9 |
| 20260904183805 | 28 | 335 | 8.0 | 14.5 | 0.00 | 0.00 | 0.00 | 75 | 1013.1 |
| 20260904183300 | 27 | 82 | 3.2 | 4.8 | 0.00 | 0.00 | 0.00 | 75 | 1012.9 |
| 20260904182755 | 27 | 354 | 6.4 | 8.0 | 0.00 | 0.00 | 0.00 | 75 | 1013.1 |
| 20260904182250 | 27 | 236 | 3.2 | 3.2 | 0.00 | 0.00 | 0.00 | 76 | 1012.9 |
| 20260904181746 | 27 | 335 | 4.8 | 4.8 | 0.00 | 0.00 | 0.00 | 78 | 1013.1 |
| 20260904181246 | 27 | 10 | 9.7 | 16.1 | 0.00 | 0.00 | 0.00 | 78 | 1013.2 |
| 20260904180741 | 27 | 343 | 3.2 | 4.8 | 0.00 | 0.00 | 0.00 | 78 | 1013.2 |
| 20260904180236 | 26 | 244 | 4.8 | 4.8 | 0.00 | 0.00 | 0.00 | 79 | 1012.9 |
| 20260904175735 | 27 | 2 | 9.7 | 11.3 | 0.00 | 0.00 | 0.00 | 78 | 1013.1 |
| 20260904175233 | 27 | 294 | 6.4 | 8.0 | 0.00 | 0.00 | 0.00 | 79 | 1012.8 |
| 20260904174729 | 27 | 356 | 6.4 | 8.0 | 0.00 | 0.00 | 0.00 | 78 | 1012.8 |
| 20260904174225 | 27 | 171 | 1.6 | 3.2 | 0.00 | 0.00 | 0.00 | 78 | 1012.8 |
| 20260904173720 | 27 | 32 | 9.7 | 14.5 | 0.00 | 0.00 | 0.00 | 77 | 1012.9 |
| 20260904173215 | 27 | 111 | 3.2 | 4.8 | 0.00 | 0.00 | 0.00 | 77 | 1012.9 |
| 20260904172712 | 28 | 249 | 6.4 | 11.3 | 0.00 | 0.00 | 0.00 | 75 | 1012.6 |
| 20260904172210 | 28 | 18 | 3.2 | 4.8 | 0.00 | 0.00 | 0.00 | 75 | 1012.5 |
| 20260904171706 | 28 | 359 | 4.8 | 4.8 | 0.00 | 0.00 | 0.00 | 75 | 1012.5 |
| 20260904171201 | 28 | 298 | 4.8 | 4.8 | 0.00 | 0.00 | 0.00 | 75 | 1012.4 |
| 20260904170657 | 28 | 107 | 1.6 | 3.2 | 0.00 | 0.00 | 0.00 | 77 | 1012.6 |
| 20260904170153 | 27 | 77 | 1.6 | 4.8 | 0.00 | 0.00 | 0.00 | 79 | 1012.6 |
| 20260904165651 | 27 | 113 | 3.2 | 4.8 | 0.00 | 0.00 | 0.00 | 79 | 1012.7 |
| 20260904165151 | 27 | 300 | 3.2 | 4.8 | 0.00 | 0.00 | 0.00 | 79 | 1012.7 |
| 20260904164646 | 27 | 131 | 4.8 | 8.0 | 0.00 | 0.00 | 0.00 | 77 | 1012.5 |
| 20260904164141 | 27 | 168 | 3.2 | 4.8 | 0.00 | 0.00 | 0.00 | 80 | 1012.5 |
| 20260904163637 | 27 | 33 | 6.4 | 8.0 | 0.00 | 0.00 | 0.00 | 80 | 1012.5 |
| 20260904163132 | 27 | 14 | 6.4 | 11.3 | 0.00 | 0.00 | 0.00 | 79 | 1012.3 |
| 20260904162631 | 27 | 173 | 4.8 | 4.8 | 0.00 | 0.00 | 0.00 | 81 | 1012.4 |
| 20260904162126 | 27 | 27 | 8.0 | 11.3 | 0.00 | 0.00 | 0.00 | 78 | 1012.4 |
| 20260904161622 | 27 | 339 | 11.3 | 16.1 | 0.00 | 0.00 | 0.00 | 78 | 1012.4 |
| 20260904161117 | 28 | 15 | 9.7 | 11.3 | 0.00 | 0.00 | 0.00 | 77 | 1012.1 |
| 20260904160612 | 28 | 170 | 0.0 | 3.2 | 0.00 | 0.00 | 0.00 | 79 | 1012.2 |
| 20260904160108 | 28 | 245 | 6.4 | 8.0 | 0.00 | 0.00 | 0.00 | 78 | 1012.1 |
| 20260904155608 | 28 | 35 | 8.0 | 11.3 | 0.00 | 0.00 | 0.00 | 76 | 1012.0 |
| 20260904155102 | 28 | 309 | 6.4 | 8.0 | 0.00 | 0.00 | 0.00 | 77 | 1012.1 |
| 20260904154556 | 28 | 130 | 1.6 | 3.2 | 0.00 | 0.00 | 0.00 | 77 | 1011.9 |
| 20260904154051 | 28 | 350 | 6.4 | 8.0 | 0.00 | 0.00 | 0.00 | 77 | 1011.9 |
| 20260904153550 | 29 | 38 | 8.0 | 11.3 | 0.00 | 0.00 | 0.00 | 75 | 1011.8 |
| 20260904153046 | 29 | 89 | 3.2 | 4.8 | 0.00 | 0.00 | 0.00 | 74 | 1011.6 |
| 20260904152542 | 29 | 155 | 3.2 | 4.8 | 0.00 | 0.00 | 0.00 | 75 | 1011.7 |
| 20260904152038 | 28 | 161 | 1.6 | 3.2 | 0.00 | 0.00 | 0.00 | 77 | 1011.4 |
| 20260904151538 | 28 | 164 | 0.0 | 0.0 | 0.00 | 0.00 | 0.00 | 78 | 1011.4 |
| 20260904151037 | 28 | 147 | 3.2 | 4.8 | 0.00 | 0.00 | 0.00 | 78 | 1011.5 |
| 20260904150532 | 28 | 83 | 1.6 | 3.2 | 0.00 | 0.00 | 0.00 | 78 | 1011.2 |
| 20260904150027 | 27 | 174 | 0.0 | 0.0 | 0.00 | 0.00 | 0.00 | 80 | 1011.5 |
| 20260904145526 | 27 | 349 | 3.2 | 4.8 | 0.00 | 0.00 | 0.00 | 80 | 1011.2 |
| 20260904145022 | 27 | 176 | 3.2 | 4.8 | 0.00 | 0.00 | 0.00 | 82 | 1011.2 |
| 20260904144518 | 26 | 151 | 0.0 | 0.0 | 0.00 | 0.00 | 0.00 | 84 | 1011.1 |
| 20260904144014 | 26 | 146 | 3.2 | 3.2 | 0.00 | 0.00 | 0.00 | 85 | 1011.2 |
| 20260904143509 | 26 | 338 | 3.2 | 4.8 | 0.00 | 0.00 | 0.00 | 86 | 1011.2 |
| 20260904143006 | 25 | 141 | 0.0 | 3.2 | 0.00 | 0.00 | 0.00 | 87 | 1011.3 |
| 20260904142502 | 25 | 152 | 0.0 | 0.0 | 0.00 | 0.00 | 0.00 | 87 | 1011.3 |
| 20260904142001 | 25 | 162 | 0.0 | 0.0 | 0.00 | 0.00 | 0.00 | 88 | 1011.3 |
| 20260904141456 | 25 | 122 | 1.6 | 3.2 | 0.00 | 0.00 | 0.00 | 88 | 1011.2 |
| 20260904140953 | 25 | 183 | 1.6 | 3.2 | 0.00 | 0.00 | 0.00 | 89 | 1011.1 |
| 20260904140452 | 25 | 122 | 1.6 | 3.2 | 0.00 | 0.00 | 0.00 | 89 | 1011.2 |
| 20260904135952 | 25 | 122 | 3.2 | 3.2 | 0.00 | 0.00 | 0.00 | 91 | 1011.2 |
| 20260904135452 | 24 | 140 | 3.2 | 3.2 | 0.00 | 0.00 | 0.00 | 91 | 1011.1 |
| 20260904134948 | 24 | 139 | 1.6 | 3.2 | 0.00 | 0.00 | 0.00 | 93 | 1011.3 |
| 20260904134448 | 24 | 172 | 0.0 | 0.0 | 0.00 | 0.00 | 0.00 | 94 | 1011.4 |
| 20260904133943 | 23 | 137 | 0.0 | 0.0 | 0.00 | 0.00 | 0.00 | 94 | 1011.3 |
| 20260904133437 | 23 | 152 | 0.0 | 0.0 | 0.00 | 0.00 | 0.00 | 95 | 1011.4 |
| 20260904132933 | 23 | 143 | 0.0 | 3.2 | 0.00 | 0.00 | 0.00 | 96 | 1011.3 |
| 20260904132428 | 23 | 155 | 0.0 | 3.2 | 0.00 | 0.00 | 0.00 | 97 | 1011.1 |
| 20260904131928 | 23 | 155 | 0.0 | 3.2 | 0.00 | 0.00 | 0.00 | 97 | 1011.3 |
| 20260904131423 | 23 | 140 | 3.2 | 3.2 | 0.00 | 0.00 | 0.00 | 97 | 1011.2 |
| 20260904130919 | 23 | 315 | 0.0 | 3.2 | 0.00 | 0.00 | 0.00 | 98 | 1011.1 |
| 20260904130418 | 22 | 250 | 0.0 | 3.2 | 0.00 | 0.00 | 0.00 | 98 | 1011.0 |
| 20260904125912 | 22 | 159 | 0.0 | 0.0 | 0.00 | 0.00 | 0.00 | 98 | 1011.0 |
| 20260904125410 | 22 | 161 | 0.0 | 0.0 | 0.00 | 0.00 | 0.00 | 98 | 1011.1 |
| 20260904124908 | 22 | 137 | 0.0 | 0.0 | 0.00 | 0.00 | 0.00 | 98 | 1010.9 |
| 20260904124405 | 22 | 161 | 0.0 | 0.0 | 0.00 | 0.00 | 0.00 | 98 | 1010.8 |
| 20260904123900 | 22 | 161 | 0.0 | 3.2 | 0.00 | 0.00 | 0.00 | 98 | 1010.6 |
| 20260904123355 | 22 | 161 | 0.0 | 0.0 | 0.00 | 0.00 | 0.00 | 98 | 1010.7 |
| 20260904122851 | 22 | 161 | 0.0 | 0.0 | 0.00 | 0.00 | 0.00 | 98 | 1010.6 |
| 20260904122350 | 22 | 160 | 0.0 | 0.0 | 0.00 | 0.00 | 0.00 | 98 | 1010.8 |
| 20260904121844 | 22 | 160 | 0.0 | 0.0 | 0.00 | 0.00 | 0.00 | 98 | 1010.6 |
| 20260904121341 | 21 | 160 | 0.0 | 0.0 | 0.00 | 0.00 | 0.00 | 97 | 1010.6 |
| 20260904120837 | 21 | 160 | 0.0 | 0.0 | 0.00 | 0.00 | 0.00 | 97 | 1010.5 |
| 20260904120333 | 21 | 160 | 0.0 | 0.0 | 0.00 | 0.00 | 0.00 | 97 | 1010.5 |
| 20260904115828 | 21 | 158 | 0.0 | 0.0 | 0.00 | 0.00 | 0.00 | 97 | 1010.6 |
| 20260904115323 | 21 | 168 | 0.0 | 0.0 | 0.00 | 0.00 | 0.00 | 97 | 1010.4 |
| 20260904114823 | 21 | 144 | 0.0 | 0.0 | 0.00 | 0.00 | 0.00 | 97 | 1010.4 |
| 20260904114318 | 21 | 167 | 0.0 | 0.0 | 0.00 | 0.00 | 0.00 | 97 | 1010.5 |
| 20260904113813 | 21 | 163 | 0.0 | 0.0 | 0.00 | 0.00 | 0.00 | 97 | 1010.1 |
| 20260904113312 | 21 | 167 | 0.0 | 0.0 | 0.00 | 0.00 | 0.00 | 97 | 1010.2 |
| 20260904112807 | 21 | 162 | 0.0 | 0.0 | 0.00 | 0.00 | 0.00 | 97 | 1010.1 |
| 20260904112305 | 22 | 157 | 0.0 | 0.0 | 0.00 | 0.00 | 0.00 | 97 | 1010.3 |
| 20260904111758 | 22 | 148 | 0.0 | 0.0 | 0.00 | 0.00 | 0.00 | 97 | 1010.1 |
| 20260904111254 | 22 | 171 | 0.0 | 0.0 | 0.00 | 0.00 | 0.00 | 97 | 1010.2 |
| 20260904110749 | 22 | 162 | 0.0 | 0.0 | 0.00 | 0.00 | 0.00 | 97 | 1010.3 |
| 20260904110248 | 22 | 144 | 3.2 | 3.2 | 0.00 | 0.00 | 0.00 | 97 | 1010.0 |
| 20260904105743 | 22 | 173 | 0.0 | 3.2 | 0.00 | 0.00 | 0.00 | 97 | 1010.1 |
| 20260904105238 | 22 | 154 | 0.0 | 0.0 | 0.00 | 0.00 | 0.00 | 97 | 1010.2 |
| 20260904104733 | 22 | 175 | 0.0 | 0.0 | 0.00 | 0.00 | 0.00 | 97 | 1009.9 |
| 20260904104229 | 22 | 175 | 0.0 | 0.0 | 0.00 | 0.00 | 0.00 | 97 | 1010.2 |
| 20260904103726 | 22 | 176 | 0.0 | 0.0 | 0.00 | 0.00 | 0.00 | 97 | 1010.2 |
| 20260904103220 | 22 | 169 | 0.0 | 3.2 | 0.00 | 0.00 | 0.00 | 97 | 1010.1 |
| 20260904102716 | 22 | 150 | 0.0 | 3.2 | 0.00 | 0.00 | 0.00 | 97 | 1010.1 |
| 20260904102211 | 22 | 174 | 0.0 | 0.0 | 0.00 | 0.00 | 0.00 | 97 | 1010.2 |
| 20260904101708 | 22 | 156 | 0.0 | 0.0 | 0.00 | 0.00 | 0.00 | 97 | 1010.4 |
| 20260904101203 | 22 | 161 | 0.0 | 0.0 | 0.00 | 0.00 | 0.00 | 97 | 1010.3 |
| 20260904100659 | 22 | 161 | 0.0 | 0.0 | 0.00 | 0.00 | 0.00 | 97 | 1010.0 |
| 20260904100155 | 22 | 161 | 0.0 | 0.0 | 0.00 | 0.00 | 0.00 | 97 | 1010.3 |
| 20260904095649 | 22 | 161 | 0.0 | 0.0 | 0.00 | 0.00 | 0.00 | 97 | 1010.1 |
| 20260904095148 | 21 | 161 | 0.0 | 0.0 | 0.00 | 0.00 | 0.00 | 97 | 1010.1 |
| 20260904094644 | 21 | 161 | 0.0 | 0.0 | 0.00 | 0.00 | 0.00 | 97 | 1010.0 |
| 20260904094138 | 21 | 161 | 0.0 | 0.0 | 0.00 | 0.00 | 0.00 | 96 | 1009.9 |
| 20260904093636 | 22 | 161 | 0.0 | 0.0 | 0.00 | 0.00 | 0.00 | 96 | 1010.0 |
| 20260904093135 | 22 | 161 | 0.0 | 0.0 | 0.00 | 0.00 | 0.00 | 96 | 1009.8 |
| 20260904092631 | 21 | 161 | 0.0 | 0.0 | 0.00 | 0.00 | 0.00 | 96 | 1009.9 |
| 20260904092127 | 22 | 161 | 0.0 | 0.0 | 0.00 | 0.00 | 0.00 | 96 | 1009.9 |
| 20260904091623 | 22 | 161 | 0.0 | 0.0 | 0.00 | 0.00 | 0.00 | 96 | 1009.7 |
| 20260904091123 | 22 | 161 | 0.0 | 0.0 | 0.00 | 0.00 | 0.00 | 96 | 1009.8 |
| 20260904090618 | 22 | 160 | 0.0 | 0.0 | 0.00 | 0.00 | 0.00 | 96 | 1009.6 |
| 20260904090115 | 22 | 161 | 0.0 | 0.0 | 0.00 | 0.00 | 0.00 | 96 | 1009.8 |
| 20260904085614 | 22 | 161 | 0.0 | 0.0 | 0.00 | 0.00 | 0.00 | 96 | 1009.6 |
| 20260904085114 | 22 | 161 | 0.0 | 0.0 | 0.00 | 0.00 | 0.00 | 96 | 1009.4 |
| 20260904084610 | 22 | 160 | 0.0 | 0.0 | 0.00 | 0.00 | 0.00 | 96 | 1009.5 |
| 20260904084106 | 22 | 161 | 0.0 | 0.0 | 0.00 | 0.00 | 0.00 | 96 | 1009.7 |
| 20260904083602 | 22 | 160 | 0.0 | 0.0 | 0.00 | 0.00 | 0.00 | 96 | 1009.4 |
| 20260904083057 | 22 | 161 | 0.0 | 0.0 | 0.00 | 0.00 | 0.00 | 96 | 1009.6 |
| 20260904082552 | 22 | 161 | 0.0 | 0.0 | 0.00 | 0.00 | 0.00 | 96 | 1009.5 |
| 20260904082048 | 22 | 161 | 0.0 | 0.0 | 0.00 | 0.00 | 0.00 | 95 | 1009.6 |
| 20260904081543 | 22 | 160 | 0.0 | 0.0 | 0.00 | 0.00 | 0.00 | 95 | 1009.6 |
| 20260904081038 | 22 | 161 | 0.0 | 0.0 | 0.00 | 0.00 | 0.00 | 95 | 1009.6 |
| 20260904080534 | 22 | 161 | 0.0 | 0.0 | 0.00 | 0.00 | 0.00 | 95 | 1009.6 |
| 20260904080030 | 22 | 161 | 0.0 | 0.0 | 0.00 | 0.00 | 0.00 | 95 | 1009.5 |
| 20260904075526 | 22 | 161 | 0.0 | 0.0 | 0.00 | 0.00 | 0.00 | 95 | 1009.7 |
| 20260904075020 | 22 | 161 | 0.0 | 0.0 | 0.00 | 0.00 | 0.00 | 95 | 1009.3 |
| 20260904074515 | 22 | 161 | 0.0 | 0.0 | 0.00 | 0.00 | 0.00 | 95 | 1009.4 |
| 20260904074014 | 22 | 161 | 0.0 | 0.0 | 0.00 | 0.00 | 0.00 | 95 | 1009.4 |
| 20260904073510 | 22 | 161 | 0.0 | 0.0 | 0.00 | 0.00 | 0.00 | 95 | 1009.5 |
| 20260904073006 | 22 | 161 | 0.0 | 0.0 | 0.00 | 0.00 | 0.00 | 94 | 1009.6 |
| 20260904072502 | 22 | 161 | 0.0 | 0.0 | 0.00 | 0.00 | 0.00 | 94 | 1009.6 |
| 20260904072001 | 22 | 161 | 0.0 | 0.0 | 0.00 | 0.00 | 0.00 | 94 | 1009.5 |
| 20260904071457 | 22 | 161 | 0.0 | 0.0 | 0.00 | 0.00 | 0.00 | 94 | 1009.4 |
| 20260904070952 | 22 | 161 | 0.0 | 0.0 | 0.00 | 0.00 | 0.00 | 94 | 1009.9 |
| 20260904070450 | 22 | 160 | 0.0 | 0.0 | 0.00 | 0.00 | 0.00 | 94 | 1009.7 |
| 20260904065945 | 22 | 160 | 0.0 | 0.0 | 0.00 | 0.00 | 0.00 | 93 | 1009.3 |
| 20260904065441 | 23 | 160 | 0.0 | 0.0 | 0.00 | 0.00 | 0.00 | 93 | 1009.8 |
| 20260904064936 | 23 | 161 | 0.0 | 0.0 | 0.00 | 0.00 | 0.00 | 93 | 1009.8 |
| 20260904064432 | 23 | 160 | 0.0 | 0.0 | 0.00 | 0.00 | 0.00 | 93 | 1009.8 |
| 20260904063927 | 23 | 160 | 0.0 | 0.0 | 0.00 | 0.00 | 0.00 | 93 | 1009.6 |
| 20260904063424 | 23 | 160 | 0.0 | 0.0 | 0.00 | 0.00 | 0.00 | 93 | 1009.7 |
| 20260904062918 | 23 | 160 | 0.0 | 0.0 | 0.00 | 0.00 | 0.00 | 93 | 1009.9 |
| 20260904062414 | 23 | 161 | 0.0 | 0.0 | 0.00 | 0.00 | 0.00 | 92 | 1009.8 |
| 20260904061910 | 23 | 161 | 0.0 | 0.0 | 0.00 | 0.00 | 0.00 | 92 | 1009.7 |
| 20260904061406 | 23 | 161 | 0.0 | 0.0 | 0.00 | 0.00 | 0.00 | 92 | 1009.6 |
| 20260904060902 | 23 | 160 | 0.0 | 0.0 | 0.00 | 0.00 | 0.00 | 92 | 1009.7 |
| 20260904060358 | 23 | 160 | 0.0 | 0.0 | 0.00 | 0.00 | 0.00 | 92 | 1009.6 |
| 20260904055853 | 23 | 160 | 0.0 | 0.0 | 0.00 | 0.00 | 0.00 | 92 | 1009.7 |
| 20260904055348 | 23 | 160 | 0.0 | 0.0 | 0.00 | 0.00 | 0.00 | 92 | 1009.6 |
| 20260904054844 | 23 | 160 | 0.0 | 0.0 | 0.00 | 0.00 | 0.00 | 91 | 1009.6 |
| 20260904054340 | 23 | 161 | 0.0 | 0.0 | 0.00 | 0.00 | 0.00 | 91 | 1009.7 |
| 20260904053835 | 23 | 161 | 0.0 | 0.0 | 0.00 | 0.00 | 0.00 | 91 | 1009.5 |
| 20260904053334 | 23 | 160 | 0.0 | 0.0 | 0.00 | 0.00 | 0.00 | 91 | 1009.5 |
| 20260904052830 | 23 | 160 | 0.0 | 0.0 | 0.00 | 0.00 | 0.00 | 90 | 1009.7 |
| 20260904052327 | 23 | 160 | 0.0 | 0.0 | 0.00 | 0.00 | 0.00 | 90 | 1009.4 |
| 20260904051823 | 23 | 160 | 0.0 | 0.0 | 0.00 | 0.00 | 0.00 | 90 | 1009.6 |
| 20260904051318 | 24 | 160 | 0.0 | 0.0 | 0.00 | 0.00 | 0.00 | 89 | 1009.7 |
| 20260904050813 | 24 | 160 | 0.0 | 0.0 | 0.00 | 0.00 | 0.00 | 89 | 1009.6 |
| 20260904050311 | 24 | 160 | 0.0 | 0.0 | 0.00 | 0.00 | 0.00 | 89 | 1009.5 |
| 20260904045810 | 24 | 159 | 0.0 | 0.0 | 0.00 | 0.03 | 0.03 | 88 | 1009.6 |
| 20260904045307 | 24 | 159 | 0.0 | 0.0 | 0.00 | 0.03 | 0.03 | 88 | 1009.6 |
| 20260904044759 | 24 | 165 | 0.0 | 0.0 | 0.00 | 0.03 | 0.03 | 88 | 1009.5 |
| 20260904044257 | 24 | 155 | 0.0 | 0.0 | 0.00 | 0.03 | 0.03 | 88 | 1009.5 |
| 20260904043752 | 24 | 154 | 0.0 | 0.0 | 0.00 | 0.03 | 0.03 | 88 | 1009.4 |
| 20260904043248 | 24 | 157 | 0.0 | 0.0 | 0.00 | 0.03 | 0.03 | 88 | 1009.4 |
| 20260904042743 | 24 | 157 | 0.0 | 0.0 | 0.00 | 0.03 | 0.03 | 87 | 1009.4 |
| 20260904042240 | 25 | 156 | 0.0 | 0.0 | 0.00 | 0.03 | 0.03 | 87 | 1009.2 |
| 20260904041739 | 25 | 161 | 0.0 | 0.0 | 0.00 | 0.03 | 0.03 | 86 | 1009.4 |
| 20260904041235 | 25 | 161 | 0.0 | 0.0 | 0.00 | 0.03 | 0.03 | 86 | 1009.2 |
| 20260904040731 | 25 | 165 | 0.0 | 0.0 | 0.00 | 0.03 | 0.03 | 86 | 1009.3 |
| 20260904040226 | 25 | 165 | 0.0 | 0.0 | 0.00 | 0.03 | 0.03 | 85 | 1009.2 |
| 20260904035722 | 25 | 167 | 0.0 | 3.2 | 0.00 | 0.03 | 0.03 | 85 | 1009.0 |
| 20260904035217 | 25 | 157 | 0.0 | 0.0 | 0.00 | 0.03 | 0.03 | 84 | 1009.4 |
| 20260904034716 | 25 | 160 | 0.0 | 0.0 | 0.00 | 0.03 | 0.03 | 84 | 1009.5 |
| 20260904034212 | 25 | 162 | 0.0 | 0.0 | 0.00 | 0.03 | 0.03 | 83 | 1009.4 |
| 20260904033708 | 25 | 162 | 0.0 | 0.0 | 0.00 | 0.03 | 0.03 | 83 | 1009.4 |
| 20260904033205 | 25 | 156 | 0.0 | 0.0 | 0.00 | 0.03 | 0.03 | 82 | 1009.5 |
| 20260904032701 | 25 | 161 | 0.0 | 0.0 | 0.00 | 0.03 | 0.03 | 82 | 1009.4 |
| 20260904032159 | 26 | 154 | 0.0 | 0.0 | 0.00 | 0.03 | 0.03 | 81 | 1009.4 |
| 20260904031700 | 26 | 167 | 0.0 | 0.0 | 0.00 | 0.03 | 0.03 | 81 | 1009.4 |
| 20260904031155 | 25 | 161 | 0.0 | 0.0 | 0.00 | 0.03 | 0.03 | 81 | 1009.5 |
| 20260904030651 | 26 | 162 | 0.0 | 0.0 | 0.00 | 0.03 | 0.03 | 81 | 1009.6 |
| 20260904030146 | 26 | 157 | 0.0 | 0.0 | 0.00 | 0.03 | 0.03 | 81 | 1009.5 |
| 20260904025642 | 26 | 137 | 0.0 | 3.2 | 0.00 | 0.03 | 0.03 | 81 | 1009.6 |
| 20260904025136 | 26 | 166 | 0.0 | 0.0 | 0.00 | 0.03 | 0.03 | 80 | 1009.6 |
| 20260904024632 | 26 | 149 | 0.0 | 0.0 | 0.00 | 0.03 | 0.03 | 80 | 1009.5 |
| 20260904024127 | 26 | 167 | 0.0 | 0.0 | 0.00 | 0.03 | 0.03 | 79 | 1009.5 |
| 20260904023623 | 26 | 165 | 0.0 | 0.0 | 0.00 | 0.03 | 0.03 | 79 | 1009.5 |
| 20260904023119 | 26 | 166 | 0.0 | 0.0 | 0.00 | 0.03 | 0.03 | 79 | 1009.5 |
| 20260904022614 | 26 | 173 | 1.6 | 3.2 | 0.00 | 0.03 | 0.03 | 79 | 1009.3 |
| 20260904022110 | 26 | 167 | 0.0 | 0.0 | 0.00 | 0.03 | 0.03 | 79 | 1009.4 |
| 20260904021605 | 26 | 167 | 0.0 | 0.0 | 0.00 | 0.03 | 0.03 | 78 | 1009.5 |
| 20260904021100 | 26 | 164 | 0.0 | 0.0 | 0.00 | 0.03 | 0.03 | 78 | 1009.4 |
| 20260904020555 | 26 | 164 | 0.0 | 0.0 | 0.00 | 0.03 | 0.03 | 78 | 1009.3 |
| 20260904020045 | 26 | 164 | 0.0 | 0.0 | 0.00 | 0.03 | 0.03 | 77 | 1009.5 |
| 20260904015540 | 26 | 155 | 0.0 | 0.0 | 0.00 | 0.03 | 0.03 | 76 | 1009.4 |
| 20260904015038 | 26 | 158 | 0.0 | 0.0 | 0.00 | 0.03 | 0.03 | 76 | 1009.2 |
| 20260904014532 | 26 | 166 | 0.0 | 3.2 | 0.00 | 0.03 | 0.03 | 76 | 1009.3 |
| 20260904014028 | 27 | 174 | 0.0 | 0.0 | 0.00 | 0.03 | 0.03 | 75 | 1009.3 |
| 20260904013524 | 27 | 169 | 0.0 | 0.0 | 0.00 | 0.03 | 0.03 | 75 | 1008.8 |
| 20260904013021 | 27 | 39 | 1.6 | 3.2 | 0.00 | 0.03 | 0.03 | 75 | 1009.2 |
| 20260904012520 | 27 | 167 | 0.0 | 0.0 | 0.00 | 0.03 | 0.03 | 74 | 1008.8 |
| 20260904012015 | 27 | 173 | 0.0 | 0.0 | 0.00 | 0.03 | 0.03 | 73 | 1008.8 |
| 20260904011509 | 27 | 170 | 0.0 | 0.0 | 0.00 | 0.03 | 0.03 | 73 | 1008.9 |
| 20260904011004 | 27 | 166 | 0.0 | 0.0 | 0.00 | 0.03 | 0.03 | 72 | 1008.7 |
| 20260904010501 | 28 | 164 | 0.0 | 0.0 | 0.00 | 0.03 | 0.03 | 71 | 1008.7 |
| 20260904010000 | 28 | 152 | 3.2 | 3.2 | 0.00 | 0.03 | 0.03 | 71 | 1008.6 |
| 20260904005456 | 28 | 173 | 0.0 | 0.0 | 0.00 | 0.03 | 0.03 | 71 | 1008.7 |
| 20260904004951 | 28 | 176 | 1.6 | 3.2 | 0.00 | 0.03 | 0.03 | 71 | 1008.6 |
| 20260904004447 | 28 | 163 | 0.0 | 0.0 | 0.00 | 0.03 | 0.03 | 70 | 1008.5 |
| 20260904003947 | 28 | 168 | 0.0 | 3.2 | 0.00 | 0.03 | 0.03 | 69 | 1008.7 |
| 20260904003443 | 28 | 168 | 0.0 | 3.2 | 0.00 | 0.03 | 0.03 | 69 | 1008.6 |
| 20260904002938 | 28 | 175 | 0.0 | 3.2 | 0.00 | 0.03 | 0.03 | 69 | 1008.6 |
| 20260904002435 | 28 | 113 | 0.0 | 3.2 | 0.00 | 0.03 | 0.03 | 68 | 1008.7 |
| 20260904001933 | 28 | 173 | 3.2 | 4.8 | 0.00 | 0.03 | 0.03 | 68 | 1008.9 |
| 20260904001429 | 28 | 166 | 0.0 | 0.0 | 0.00 | 0.03 | 0.03 | 68 | 1008.7 |
| 20260904000923 | 29 | 222 | 4.8 | 8.0 | 0.00 | 0.03 | 0.03 | 67 | 1008.9 |
| 20260904000425 | 29 | 171 | 3.2 | 4.8 | 0.00 | 0.03 | 0.03 | 66 | 1008.7 |
| 20260903235919 | 29 | 140 | 4.8 | 8.0 | 0.00 | 0.03 | 0.03 | 65 | 1008.8 |
| 20260903235415 | 29 | 322 | 3.2 | 4.8 | 0.00 | 0.03 | 0.03 | 65 | 1008.6 |
| 20260903234914 | 29 | 145 | 1.6 | 3.2 | 0.00 | 0.03 | 0.03 | 65 | 1008.8 |
| 20260903234410 | 30 | 173 | 1.6 | 3.2 | 0.00 | 0.03 | 0.03 | 64 | 1008.7 |
| 20260903233906 | 30 | 169 | 3.2 | 4.8 | 0.00 | 0.03 | 0.03 | 64 | 1008.7 |
| 20260903233402 | 30 | 97 | 0.0 | 3.2 | 0.00 | 0.03 | 0.03 | 64 | 1008.7 |
| 20260903232901 | 30 | 146 | 3.2 | 4.8 | 0.00 | 0.03 | 0.03 | 64 | 1008.7 |
| 20260903232356 | 30 | 169 | 1.6 | 3.2 | 0.00 | 0.03 | 0.03 | 63 | 1008.4 |
| 20260903231856 | 30 | 126 | 3.2 | 4.8 | 0.00 | 0.03 | 0.03 | 62 | 1008.4 |
| 20260903231351 | 30 | 179 | 1.6 | 3.2 | 0.00 | 0.03 | 0.03 | 62 | 1008.4 |
| 20260903230846 | 30 | 190 | 0.0 | 3.2 | 0.00 | 0.03 | 0.03 | 62 | 1008.1 |
| 20260903230341 | 30 | 192 | 9.7 | 14.5 | 0.00 | 0.03 | 0.03 | 61 | 1007.9 |
| 20260903225838 | 30 | 147 | 3.2 | 4.8 | 0.00 | 0.03 | 0.03 | 61 | 1008.0 |
| 20260903225333 | 30 | 176 | 0.0 | 3.2 | 0.00 | 0.03 | 0.03 | 60 | 1008.1 |
| 20260903224830 | 30 | 203 | 1.6 | 4.8 | 0.00 | 0.03 | 0.03 | 60 | 1008.1 |
| 20260903224325 | 31 | 84 | 8.0 | 14.5 | 0.00 | 0.03 | 0.03 | 59 | 1008.0 |